Time,TemperatureF,DewpointF,PressureIn,WindDirection,WindDirectionDegrees,WindSpeedMPH,WindSpeedGustMPH,Humidity,HourlyPrecipIn,Conditions,Clouds,dailyrainin,SoftwareType,DateUTC
2013-05-14 00:01:00,50.8,42.1,30.21,North,0,0.0,0.0,72,0.00,,,0.00,WUHU216HW,2013-05-14 07:01:00,
2013-05-14 00:06:00,50.8,42.1,30.21,North,0,0.0,0.0,72,0.00,,,0.00,WUHU216HW,2013-05-14 07:06:00,
2013-05-14 00:11:00,50.6,42.0,30.21,North,0,0.0,0.0,72,0.00,,,0.00,WUHU216HW,2013-05-14 07:11:00,
2013-05-14 00:16:00,50.4,42.0,30.21,North,0,0.0,0.0,73,0.00,,,0.00,WUHU216HW,2013-05-14 07:16:00,
2013-05-14 00:21:00,50.4,42.0,30.21,North,0,0.0,0.0,73,0.00,,,0.00,WUHU216HW,2013-05-14 07:21:00,
2013-05-14 00:26:00,50.2,41.9,30.21,North,0,0.0,0.0,73,0.00,,,0.00,WUHU216HW,2013-05-14 07:26:00,
2013-05-14 00:31:00,50.2,41.9,30.21,North,0,0.0,0.0,73,0.00,,,0.00,WUHU216HW,2013-05-14 07:31:00,
2013-05-14 00:36:00,50.2,42.2,30.21,North,0,0.0,0.0,74,0.00,,,0.00,WUHU216HW,2013-05-14 07:36:00,
2013-05-14 00:41:00,50.2,42.6,30.21,North,0,0.0,0.0,75,0.00,,,0.00,WUHU216HW,2013-05-14 07:41:00,
2013-05-14 00:46:00,50.2,42.6,30.21,North,0,0.0,0.0,75,0.00,,,0.00,WUHU216HW,2013-05-14 07:46:00,
2013-05-14 00:51:00,50.2,42.6,30.21,North,0,0.0,0.0,75,0.00,,,0.00,WUHU216HW,2013-05-14 07:51:00,
2013-05-14 00:56:00,50.2,42.6,30.21,North,0,0.0,0.0,75,0.00,,,0.00,WUHU216HW,2013-05-14 07:56:00,
2013-05-14 01:01:00,50.4,42.8,30.21,North,0,0.0,0.0,75,0.00,,,0.00,WUHU216HW,2013-05-14 08:01:00,
2013-05-14 01:06:00,50.6,42.9,30.22,North,0,0.0,0.0,75,0.00,,,0.00,WUHU216HW,2013-05-14 08:06:00,
2013-05-14 01:11:00,50.6,43.3,30.21,North,0,0.0,0.0,76,0.00,,,0.00,WUHU216HW,2013-05-14 08:11:00,
2013-05-14 01:16:00,50.8,43.5,30.22,North,0,0.0,0.0,76,0.00,,,0.00,WUHU216HW,2013-05-14 08:16:00,
2013-05-14 01:21:00,50.8,43.1,30.22,North,0,0.0,0.0,75,0.00,,,0.00,WUHU216HW,2013-05-14 08:21:00,
2013-05-14 01:26:00,50.6,43.3,30.22,North,0,0.0,0.0,76,0.00,,,0.00,WUHU216HW,2013-05-14 08:26:00,
2013-05-14 01:31:00,50.6,43.3,30.22,North,0,0.0,0.0,76,0.00,,,0.00,WUHU216HW,2013-05-14 08:31:00,
2013-05-14 01:36:00,50.4,43.1,30.22,North,0,0.0,0.0,76,0.00,,,0.00,WUHU216HW,2013-05-14 08:36:00,
2013-05-14 01:41:00,50.2,42.9,30.21,North,0,0.0,0.0,76,0.00,,,0.00,WUHU216HW,2013-05-14 08:41:00,
2013-05-14 01:46:00,50.0,42.8,30.21,North,0,0.0,0.0,76,0.00,,,0.00,WUHU216HW,2013-05-14 08:46:00,
2013-05-14 01:51:00,49.9,42.6,30.21,North,0,0.0,0.0,76,0.00,,,0.00,WUHU216HW,2013-05-14 08:51:00,
2013-05-14 01:56:00,49.9,42.6,30.21,North,0,0.0,0.0,76,0.00,,,0.00,WUHU216HW,2013-05-14 08:56:00,
2013-05-14 02:01:00,49.5,42.2,30.21,North,0,0.0,0.0,76,0.00,,,0.00,WUHU216HW,2013-05-14 09:01:00,
2013-05-14 02:06:00,49.3,42.4,30.20,North,0,0.0,0.0,77,0.00,,,0.00,WUHU216HW,2013-05-14 09:06:00,
2013-05-14 02:11:00,49.0,42.0,30.20,North,0,0.0,0.0,77,0.00,,,0.00,WUHU216HW,2013-05-14 09:11:00,
2013-05-14 02:16:00,48.8,41.9,30.20,North,0,0.0,0.0,77,0.00,,,0.00,WUHU216HW,2013-05-14 09:16:00,
2013-05-14 02:21:00,48.6,41.9,30.20,North,0,0.0,0.0,78,0.00,,,0.00,WUHU216HW,2013-05-14 09:21:00,
2013-05-14 02:26:00,48.4,41.8,30.20,North,0,0.0,0.0,78,0.00,,,0.00,WUHU216HW,2013-05-14 09:26:00,
2013-05-14 02:31:00,48.2,41.6,30.20,North,0,0.0,0.0,78,0.00,,,0.00,WUHU216HW,2013-05-14 09:31:00,
2013-05-14 02:36:00,48.2,41.6,30.20,North,0,0.0,0.0,78,0.00,,,0.00,WUHU216HW,2013-05-14 09:36:00,
2013-05-14 02:41:00,47.9,41.3,30.21,North,0,0.0,0.0,78,0.00,,,0.00,WUHU216HW,2013-05-14 09:41:00,
2013-05-14 02:46:00,47.7,41.1,30.21,North,0,0.0,0.0,78,0.00,,,0.00,WUHU216HW,2013-05-14 09:46:00,
2013-05-14 02:51:00,47.7,41.1,30.21,North,0,0.0,0.0,78,0.00,,,0.00,WUHU216HW,2013-05-14 09:51:00,
2013-05-14 02:56:00,47.5,41.3,30.21,North,0,0.0,0.0,79,0.00,,,0.00,WUHU216HW,2013-05-14 09:56:00,
2013-05-14 03:01:00,47.5,41.3,30.21,North,0,0.0,0.0,79,0.00,,,0.00,WUHU216HW,2013-05-14 10:01:00,
2013-05-14 03:06:00,47.3,41.1,30.20,North,0,0.0,0.0,79,0.00,,,0.00,WUHU216HW,2013-05-14 10:06:00,
2013-05-14 03:11:00,47.2,41.0,30.20,North,0,0.0,0.0,79,0.00,,,0.00,WUHU216HW,2013-05-14 10:11:00,
2013-05-14 03:16:00,47.2,41.0,30.20,North,0,0.0,0.0,79,0.00,,,0.00,WUHU216HW,2013-05-14 10:16:00,
2013-05-14 03:21:00,47.0,40.5,30.20,North,0,0.0,0.0,78,0.00,,,0.00,WUHU216HW,2013-05-14 10:21:00,
2013-05-14 03:26:00,47.0,40.5,30.20,North,0,0.0,0.0,78,0.00,,,0.00,WUHU216HW,2013-05-14 10:26:00,
2013-05-14 03:31:00,46.6,40.5,30.20,North,0,0.0,0.0,79,0.00,,,0.00,WUHU216HW,2013-05-14 10:31:00,
2013-05-14 03:36:00,46.6,40.5,30.20,North,0,0.0,0.0,79,0.00,,,0.00,WUHU216HW,2013-05-14 10:36:00,
2013-05-14 03:41:00,46.6,40.5,30.20,North,0,0.0,0.0,79,0.00,,,0.00,WUHU216HW,2013-05-14 10:41:00,
2013-05-14 03:46:00,46.4,40.3,30.20,North,0,0.0,0.0,79,0.00,,,0.00,WUHU216HW,2013-05-14 10:46:00,
2013-05-14 03:51:00,46.3,40.1,30.20,North,0,0.0,0.0,79,0.00,,,0.00,WUHU216HW,2013-05-14 10:51:00,
2013-05-14 03:56:00,46.3,40.1,30.20,North,0,0.0,0.0,79,0.00,,,0.00,WUHU216HW,2013-05-14 10:56:00,
2013-05-14 04:01:00,46.1,40.3,30.20,North,0,0.0,0.0,80,0.00,,,0.00,WUHU216HW,2013-05-14 11:01:00,
2013-05-14 04:06:00,45.9,40.1,30.20,North,0,0.0,0.0,80,0.00,,,0.00,WUHU216HW,2013-05-14 11:06:00,
2013-05-14 04:11:00,45.7,40.0,30.20,North,0,0.0,0.0,80,0.00,,,0.00,WUHU216HW,2013-05-14 11:11:00,
2013-05-14 04:16:00,45.7,40.0,30.20,North,0,0.0,0.0,80,0.00,,,0.00,WUHU216HW,2013-05-14 11:16:00,
2013-05-14 04:21:00,45.5,39.8,30.20,North,0,0.0,0.0,80,0.00,,,0.00,WUHU216HW,2013-05-14 11:21:00,
2013-05-14 04:26:00,45.5,39.8,30.20,North,0,0.0,0.0,80,0.00,,,0.00,WUHU216HW,2013-05-14 11:26:00,
2013-05-14 04:31:00,45.5,39.8,30.19,North,0,0.0,0.0,80,0.00,,,0.00,WUHU216HW,2013-05-14 11:31:00,
2013-05-14 04:36:00,45.4,39.9,30.20,North,0,0.0,0.0,81,0.00,,,0.00,WUHU216HW,2013-05-14 11:36:00,
2013-05-14 04:41:00,45.4,39.9,30.20,North,0,0.0,0.0,81,0.00,,,0.00,WUHU216HW,2013-05-14 11:41:00,
2013-05-14 04:46:00,45.4,39.9,30.20,North,0,0.0,0.0,81,0.00,,,0.00,WUHU216HW,2013-05-14 11:46:00,
2013-05-14 04:51:00,45.2,39.7,30.20,North,0,0.0,0.0,81,0.00,,,0.00,WUHU216HW,2013-05-14 11:51:00,
2013-05-14 04:56:00,45.2,39.7,30.20,North,0,0.0,0.0,81,0.00,,,0.00,WUHU216HW,2013-05-14 11:56:00,
2013-05-14 05:01:00,45.0,39.5,30.20,North,0,0.0,0.0,81,0.00,,,0.00,WUHU216HW,2013-05-14 12:01:00,
2013-05-14 05:06:00,45.0,39.5,30.20,North,0,0.0,0.0,81,0.00,,,0.00,WUHU216HW,2013-05-14 12:06:00,
2013-05-14 05:11:00,45.0,39.5,30.19,North,0,0.0,0.0,81,0.00,,,0.00,WUHU216HW,2013-05-14 12:11:00,
2013-05-14 05:16:00,45.0,39.5,30.20,North,0,0.0,0.0,81,0.00,,,0.00,WUHU216HW,2013-05-14 12:16:00,
2013-05-14 05:21:00,45.0,39.5,30.19,North,0,0.0,0.0,81,0.00,,,0.00,WUHU216HW,2013-05-14 12:21:00,
2013-05-14 05:26:00,44.8,39.3,30.20,North,0,0.0,0.0,81,0.00,,,0.00,WUHU216HW,2013-05-14 12:26:00,
2013-05-14 05:31:00,44.8,39.3,30.20,North,0,0.0,0.0,81,0.00,,,0.00,WUHU216HW,2013-05-14 12:31:00,
2013-05-14 05:36:00,44.6,39.5,30.20,North,0,0.0,0.0,82,0.00,,,0.00,WUHU216HW,2013-05-14 12:36:00,
2013-05-14 05:41:00,44.5,39.3,30.20,North,0,0.0,0.0,82,0.00,,,0.00,WUHU216HW,2013-05-14 12:41:00,
2013-05-14 05:46:00,44.5,39.3,30.20,North,0,0.0,0.0,82,0.00,,,0.00,WUHU216HW,2013-05-14 12:46:00,
2013-05-14 05:51:00,44.5,39.3,30.20,North,0,0.0,0.0,82,0.00,,,0.00,WUHU216HW,2013-05-14 12:51:00,
2013-05-14 05:56:00,44.5,39.3,30.20,North,0,0.0,0.0,82,0.00,,,0.00,WUHU216HW,2013-05-14 12:56:00,
2013-05-14 06:01:00,44.3,39.2,30.20,North,0,0.0,0.0,82,0.00,,,0.00,WUHU216HW,2013-05-14 13:01:00,
2013-05-14 06:06:00,44.3,39.2,30.20,North,0,0.0,0.0,82,0.00,,,0.00,WUHU216HW,2013-05-14 13:06:00,
2013-05-14 06:11:00,44.3,39.2,30.20,North,0,0.0,0.0,82,0.00,,,0.00,WUHU216HW,2013-05-14 13:11:00,
2013-05-14 06:16:00,44.3,39.2,30.20,North,0,0.0,0.0,82,0.00,,,0.00,WUHU216HW,2013-05-14 13:16:00,
2013-05-14 06:21:00,44.5,39.6,30.20,North,0,0.0,0.0,83,0.00,,,0.00,WUHU216HW,2013-05-14 13:21:00,
2013-05-14 06:26:00,44.6,39.8,30.20,North,0,0.0,0.0,83,0.00,,,0.00,WUHU216HW,2013-05-14 13:26:00,
2013-05-14 06:31:00,45.4,40.9,30.19,North,0,0.0,0.0,84,0.00,,,0.00,WUHU216HW,2013-05-14 13:31:00,
2013-05-14 06:36:00,49.3,44.7,30.20,North,0,0.0,0.0,84,0.00,,,0.00,WUHU216HW,2013-05-14 13:36:00,
2013-05-14 06:41:00,51.5,46.4,30.20,North,0,0.0,0.0,83,0.00,,,0.00,WUHU216HW,2013-05-14 13:41:00,
2013-05-14 06:47:00,53.8,47.9,30.20,North,0,0.0,0.0,80,0.00,,,0.00,WUHU216HW,2013-05-14 13:47:00,
2013-05-14 06:52:00,53.6,46.3,30.20,North,0,0.0,0.0,76,0.00,,,0.00,WUHU216HW,2013-05-14 13:52:00,
2013-05-14 06:57:00,52.9,45.5,30.21,North,0,0.0,0.0,76,0.00,,,0.00,WUHU216HW,2013-05-14 13:57:00,
2013-05-14 07:02:00,52.2,44.9,30.20,North,0,0.0,0.0,76,0.00,,,0.00,WUHU216HW,2013-05-14 14:02:00,
2013-05-14 07:07:00,51.5,44.8,30.21,North,0,0.0,0.0,78,0.00,,,0.00,WUHU216HW,2013-05-14 14:07:00,
2013-05-14 07:12:00,51.5,44.8,30.21,North,0,0.0,0.0,78,0.00,,,0.00,WUHU216HW,2013-05-14 14:12:00,
2013-05-14 07:17:00,51.7,45.0,30.21,North,0,0.0,0.0,78,0.00,,,0.00,WUHU216HW,2013-05-14 14:17:00,
2013-05-14 07:22:00,52.0,45.4,30.21,North,0,0.0,0.0,78,0.00,,,0.00,WUHU216HW,2013-05-14 14:22:00,
2013-05-14 07:27:00,52.0,45.4,30.21,North,0,0.0,0.0,78,0.00,,,0.00,WUHU216HW,2013-05-14 14:27:00,
2013-05-14 07:32:00,52.2,45.9,30.21,NE,45,0.0,0.0,79,0.00,,,0.00,WUHU216HW,2013-05-14 14:32:00,
2013-05-14 07:37:00,52.6,45.9,30.21,West,270,0.4,0.4,78,0.00,,,0.00,WUHU216HW,2013-05-14 14:37:00,
2013-05-14 07:42:00,52.6,45.9,30.21,NE,45,0.9,0.9,78,0.00,,,0.00,WUHU216HW,2013-05-14 14:42:00,
2013-05-14 07:47:00,52.4,45.7,30.21,WNW,293,0.7,0.9,78,0.00,,,0.00,WUHU216HW,2013-05-14 14:47:00,
2013-05-14 07:52:00,52.6,45.9,30.21,WNW,293,0.7,0.9,78,0.00,,,0.00,WUHU216HW,2013-05-14 14:52:00,
2013-05-14 07:57:00,52.6,45.5,30.21,West,270,0.0,0.7,77,0.00,,,0.00,WUHU216HW,2013-05-14 14:57:00,
2013-05-14 08:02:00,52.9,45.5,30.21,SSW,203,0.0,0.0,76,0.00,,,0.00,WUHU216HW,2013-05-14 15:02:00,
2013-05-14 08:07:00,53.6,45.9,30.21,ENE,68,0.0,0.0,75,0.00,,,0.00,WUHU216HW,2013-05-14 15:07:00,
2013-05-14 08:12:00,53.6,45.9,30.21,SW,225,0.0,0.0,75,0.00,,,0.00,WUHU216HW,2013-05-14 15:12:00,
2013-05-14 08:17:00,54.0,46.3,30.21,WSW,248,0.4,0.4,75,0.00,,,0.00,WUHU216HW,2013-05-14 15:17:00,
2013-05-14 08:22:00,54.4,46.6,30.21,WNW,293,0.0,0.4,75,0.00,,,0.00,WUHU216HW,2013-05-14 15:22:00,
2013-05-14 08:27:00,54.7,46.3,30.21,ENE,68,0.0,0.0,73,0.00,,,0.00,WUHU216HW,2013-05-14 15:27:00,
2013-05-14 08:32:00,55.3,46.7,30.21,North,0,0.0,0.0,73,0.00,,,0.00,WUHU216HW,2013-05-14 15:32:00,
2013-05-14 08:37:00,55.4,46.3,30.21,SE,135,0.9,0.9,71,0.00,,,0.00,WUHU216HW,2013-05-14 15:37:00,
2013-05-14 08:42:00,55.4,45.9,30.21,WSW,248,0.9,0.9,70,0.00,,,0.00,WUHU216HW,2013-05-14 15:42:00,
2013-05-14 08:47:00,55.3,45.3,30.21,NE,40,0.2,0.9,69,0.00,,,0.00,WUHU216HW,2013-05-14 15:47:00,
2013-05-14 08:52:00,55.3,45.3,30.21,NW,315,0.7,0.9,69,0.00,,,0.00,WUHU216HW,2013-05-14 15:52:00,
2013-05-14 08:57:00,55.4,44.6,30.21,NNE,23,1.1,1.1,67,0.00,,,0.00,WUHU216HW,2013-05-14 15:57:00,
2013-05-14 09:02:00,56.0,46.0,30.21,ESE,113,1.1,1.1,69,0.00,,,0.00,WUHU216HW,2013-05-14 16:02:00,
2013-05-14 09:07:00,56.2,44.9,30.21,West,270,1.8,1.8,66,0.00,,,0.00,WUHU216HW,2013-05-14 16:07:00,
2013-05-14 09:12:00,56.2,46.2,30.21,WSW,248,0.0,1.8,69,0.00,,,0.00,WUHU216HW,2013-05-14 16:12:00,
2013-05-14 09:17:00,56.7,46.6,30.21,West,270,0.0,1.8,69,0.00,,,0.00,WUHU216HW,2013-05-14 16:17:00,
2013-05-14 09:22:00,56.9,45.6,30.21,West,265,1.7,2.5,66,0.00,,,0.00,WUHU216HW,2013-05-14 16:22:00,
2013-05-14 09:27:00,57.1,45.0,30.21,SSE,158,0.4,2.5,64,0.00,,,0.00,WUHU216HW,2013-05-14 16:27:00,
2013-05-14 09:32:00,56.9,44.4,30.21,WSW,248,0.2,0.7,63,0.00,,,0.00,WUHU216HW,2013-05-14 16:32:00,
2013-05-14 09:37:00,56.5,44.5,30.21,West,279,0.5,0.7,64,0.00,,,0.00,WUHU216HW,2013-05-14 16:37:00,
2013-05-14 09:42:00,56.5,44.0,30.21,NNE,23,2.5,2.5,63,0.00,,,0.00,WUHU216HW,2013-05-14 16:42:00,
2013-05-14 09:47:00,56.7,45.0,30.21,ENE,68,0.0,2.5,65,0.00,,,0.00,WUHU216HW,2013-05-14 16:47:00,
2013-05-14 09:52:00,57.6,45.1,30.21,NNE,23,0.4,2.5,63,0.00,,,0.00,WUHU216HW,2013-05-14 16:52:00,
2013-05-14 09:57:00,57.8,44.0,30.20,NE,45,0.7,1.1,60,0.00,,,0.00,WUHU216HW,2013-05-14 16:57:00,
2013-05-14 10:02:00,57.4,44.1,30.20,East,95,0.3,0.7,61,0.00,,,0.00,WUHU216HW,2013-05-14 17:02:00,
2013-05-14 10:07:00,56.9,44.0,30.20,NNE,23,0.0,0.7,62,0.00,,,0.00,WUHU216HW,2013-05-14 17:07:00,
2013-05-14 10:12:00,56.7,43.4,30.20,SE,135,1.1,1.1,61,0.00,,,0.00,WUHU216HW,2013-05-14 17:12:00,
2013-05-14 10:17:00,57.2,44.4,30.20,North,0,2.0,2.0,62,0.00,,,0.00,WUHU216HW,2013-05-14 17:17:00,
2013-05-14 10:22:00,57.6,42.5,30.20,West,270,2.9,2.9,57,0.00,,,0.00,WUHU216HW,2013-05-14 17:22:00,
2013-05-14 10:27:00,58.0,43.3,30.20,NNW,334,2.0,2.9,58,0.00,,,0.00,WUHU216HW,2013-05-14 17:27:00,
2013-05-14 10:32:00,58.0,42.3,30.20,NNE,23,3.1,3.1,56,0.00,,,0.00,WUHU216HW,2013-05-14 17:32:00,
2013-05-14 10:37:00,58.0,43.7,30.20,SE,135,1.1,3.1,59,0.00,,,0.00,WUHU216HW,2013-05-14 17:37:00,
2013-05-14 10:42:00,58.5,43.3,30.20,NNE,23,1.1,3.1,57,0.00,,,0.00,WUHU216HW,2013-05-14 17:42:00,
2013-05-14 10:47:00,58.7,43.9,30.20,East,90,0.4,1.1,58,0.00,,,0.00,WUHU216HW,2013-05-14 17:47:00,
2013-05-14 10:52:00,58.7,43.0,30.20,West,270,1.1,1.1,56,0.00,,,0.00,WUHU216HW,2013-05-14 17:52:00,
2013-05-14 10:57:00,58.7,43.5,30.20,SE,135,1.3,1.3,57,0.00,,,0.00,WUHU216HW,2013-05-14 17:57:00,
2013-05-14 11:02:00,58.9,44.1,30.21,South,180,0.4,1.3,58,0.00,,,0.00,WUHU216HW,2013-05-14 18:02:00,
2013-05-14 11:07:00,59.0,42.4,30.20,West,270,0.9,1.3,54,0.00,,,0.00,WUHU216HW,2013-05-14 18:07:00,
2013-05-14 11:12:00,59.2,43.0,30.20,NW,308,0.8,0.9,55,0.00,,,0.00,WUHU216HW,2013-05-14 18:12:00,
2013-05-14 11:17:00,59.4,42.8,30.20,East,90,1.8,1.8,54,0.00,,,0.00,WUHU216HW,2013-05-14 18:17:00,
2013-05-14 11:22:00,59.4,43.2,30.20,North,0,0.9,1.8,55,0.00,,,0.00,WUHU216HW,2013-05-14 18:22:00,
2013-05-14 11:26:00,59.8,44.0,30.20,West,270,0.4,1.8,56,0.00,,,0.00,WUHU216HW,2013-05-14 18:26:00,
2013-05-14 11:31:00,60.1,43.8,30.20,NW,315,1.8,1.8,55,0.00,,,0.00,WUHU216HW,2013-05-14 18:31:00,
2013-05-14 11:36:00,60.1,43.4,30.19,East,94,0.6,1.8,54,0.00,,,0.00,WUHU216HW,2013-05-14 18:36:00,
2013-05-14 11:41:00,60.5,43.2,30.19,WNW,293,0.4,1.8,53,0.00,,,0.00,WUHU216HW,2013-05-14 18:41:00,
2013-05-14 11:46:00,60.7,41.9,30.19,ENE,68,2.0,3.4,50,0.00,,,0.00,WUHU216HW,2013-05-14 18:46:00,
2013-05-14 11:51:00,60.8,43.1,30.19,WSW,248,2.2,3.4,52,0.00,,,0.00,WUHU216HW,2013-05-14 18:51:00,
2013-05-14 11:56:00,61.2,42.9,30.19,WNW,293,3.4,3.4,51,0.00,,,0.00,WUHU216HW,2013-05-14 18:56:00,
2013-05-14 12:01:00,61.2,42.9,30.19,West,270,1.1,3.4,51,0.00,,,0.00,WUHU216HW,2013-05-14 19:01:00,
2013-05-14 12:06:00,60.8,43.6,30.19,WSW,248,1.3,3.4,53,0.00,,,0.00,WUHU216HW,2013-05-14 19:06:00,
2013-05-14 12:11:00,61.4,44.1,30.18,South,180,1.1,2.7,53,0.00,,,0.00,WUHU216HW,2013-05-14 19:11:00,
2013-05-14 12:16:00,62.3,43.9,30.18,WSW,248,0.9,2.7,51,0.00,,,0.00,WUHU216HW,2013-05-14 19:16:00,
2013-05-14 12:21:00,62.5,45.0,30.18,East,90,1.6,1.6,53,0.00,,,0.00,WUHU216HW,2013-05-14 19:21:00,
2013-05-14 12:26:00,62.5,42.4,30.18,West,270,0.9,1.6,48,0.00,,,0.00,WUHU216HW,2013-05-14 19:26:00,
2013-05-14 12:31:00,61.6,41.6,30.18,West,270,0.9,1.6,48,0.00,,,0.00,WUHU216HW,2013-05-14 19:31:00,
2013-05-14 12:36:00,61.6,43.3,30.18,West,270,1.3,1.3,51,0.00,,,0.00,WUHU216HW,2013-05-14 19:36:00,
2013-05-14 12:41:00,61.7,42.9,30.18,West,270,0.7,1.3,50,0.00,,,0.00,WUHU216HW,2013-05-14 19:41:00,
2013-05-14 12:46:00,62.6,43.7,30.17,NNW,338,1.1,1.8,50,0.00,,,0.00,WUHU216HW,2013-05-14 19:46:00,
2013-05-14 12:51:00,62.8,40.4,30.17,SE,132,1.0,1.8,44,0.00,,,0.00,WUHU216HW,2013-05-14 19:51:00,
2013-05-14 12:56:00,62.8,41.6,30.17,SE,135,1.3,1.8,46,0.00,,,0.00,WUHU216HW,2013-05-14 19:56:00,
2013-05-14 13:01:00,63.4,43.8,30.17,West,272,1.7,1.8,49,0.00,,,0.00,WUHU216HW,2013-05-14 20:01:00,
2013-05-14 13:06:00,64.1,42.1,30.17,WSW,248,1.1,1.8,45,0.00,,,0.00,WUHU216HW,2013-05-14 20:06:00,
2013-05-14 13:11:00,64.1,40.4,30.17,North,0,0.9,1.1,42,0.00,,,0.00,WUHU216HW,2013-05-14 20:11:00,
2013-05-14 13:17:00,64.4,43.0,30.16,SW,225,1.8,1.8,46,0.00,,,0.00,WUHU216HW,2013-05-14 20:17:00,
2013-05-14 13:22:00,64.4,43.7,30.16,East,90,0.7,1.8,47,0.00,,,0.00,WUHU216HW,2013-05-14 20:22:00,
2013-05-14 13:27:00,64.4,43.7,30.16,WSW,248,0.2,0.7,47,0.00,,,0.00,WUHU216HW,2013-05-14 20:27:00,
2013-05-14 13:32:00,64.3,42.9,30.16,West,270,0.8,0.9,46,0.00,,,0.00,WUHU216HW,2013-05-14 20:32:00,
2013-05-14 13:37:00,64.4,43.7,30.16,West,270,0.2,0.9,47,0.00,,,0.00,WUHU216HW,2013-05-14 20:37:00,
2013-05-14 13:42:00,64.8,43.4,30.16,East,90,0.0,0.2,46,0.00,,,0.00,WUHU216HW,2013-05-14 20:42:00,
2013-05-14 13:47:00,65.2,43.7,30.16,SW,228,1.7,1.8,46,0.00,,,0.00,WUHU216HW,2013-05-14 20:47:00,
2013-05-14 13:52:00,64.8,42.2,30.16,West,270,1.1,1.8,44,0.00,,,0.00,WUHU216HW,2013-05-14 20:52:00,
2013-05-14 13:57:00,64.6,42.0,30.16,WSW,248,1.1,1.1,44,0.00,,,0.00,WUHU216HW,2013-05-14 20:57:00,
2013-05-14 14:02:00,64.4,42.0,30.15,WNW,293,0.4,1.1,44,0.00,,,0.00,WUHU216HW,2013-05-14 21:02:00,
2013-05-14 14:07:00,64.3,40.1,30.16,SSE,158,1.1,1.1,41,0.00,,,0.00,WUHU216HW,2013-05-14 21:07:00,
2013-05-14 14:12:00,64.3,42.3,30.15,SE,141,0.5,1.1,45,0.00,,,0.00,WUHU216HW,2013-05-14 21:12:00,
2013-05-14 14:16:00,64.8,43.4,30.15,WSW,248,1.8,1.8,46,0.00,,,0.00,WUHU216HW,2013-05-14 21:16:00,
2013-05-14 14:21:00,65.2,39.5,30.15,NW,315,0.7,1.8,39,0.00,,,0.00,WUHU216HW,2013-05-14 21:21:00,
2013-05-14 14:26:00,65.2,40.2,30.15,NW,315,0.4,1.8,40,0.00,,,0.00,WUHU216HW,2013-05-14 21:26:00,
2013-05-14 14:31:00,65.3,39.7,30.15,WSW,248,0.7,0.7,39,0.00,,,0.00,WUHU216HW,2013-05-14 21:31:00,
2013-05-14 14:36:00,65.7,42.0,30.14,SSW,203,1.1,1.1,42,0.00,,,0.00,WUHU216HW,2013-05-14 21:36:00,
2013-05-14 14:41:00,65.9,41.5,30.15,WNW,293,1.1,1.1,41,0.00,,,0.00,WUHU216HW,2013-05-14 21:41:00,
2013-05-14 14:46:00,66.1,40.3,30.14,WNW,293,1.1,1.1,39,0.00,,,0.00,WUHU216HW,2013-05-14 21:46:00,
2013-05-14 14:51:00,65.5,40.6,30.14,ESE,113,3.8,3.8,40,0.00,,,0.00,WUHU216HW,2013-05-14 21:51:00,
2013-05-14 14:56:00,65.7,42.5,30.14,WSW,248,1.8,3.8,43,0.00,,,0.00,WUHU216HW,2013-05-14 21:56:00,
2013-05-14 15:01:00,66.6,43.9,30.14,South,180,0.2,3.8,44,0.00,,,0.00,WUHU216HW,2013-05-14 22:01:00,
2013-05-14 15:06:00,67.0,41.9,30.14,WNW,293,0.4,2.2,40,0.00,,,0.00,WUHU216HW,2013-05-14 22:06:00,
2013-05-14 15:11:00,66.8,41.7,30.14,ENE,68,2.0,2.2,40,0.00,,,0.00,WUHU216HW,2013-05-14 22:11:00,
2013-05-14 15:16:00,66.6,41.6,30.13,NE,56,0.6,2.0,40,0.00,,,0.00,WUHU216HW,2013-05-14 22:16:00,
2013-05-14 15:21:00,66.4,41.4,30.13,WSW,248,0.2,2.0,40,0.00,,,0.00,WUHU216HW,2013-05-14 22:21:00,
2013-05-14 15:26:00,66.2,39.1,30.13,ENE,68,1.1,1.1,37,0.00,,,0.00,WUHU216HW,2013-05-14 22:26:00,
2013-05-14 15:31:00,66.1,38.9,30.13,SSE,152,0.5,1.1,37,0.00,,,0.00,WUHU216HW,2013-05-14 22:31:00,
2013-05-14 15:36:00,65.9,39.4,30.13,West,270,0.7,0.9,38,0.00,,,0.00,WUHU216HW,2013-05-14 22:36:00,
2013-05-14 15:41:00,65.9,38.7,30.13,SE,135,0.4,0.7,37,0.00,,,0.00,WUHU216HW,2013-05-14 22:41:00,
2013-05-14 15:46:00,65.9,39.4,30.12,NE,45,0.0,0.7,38,0.00,,,0.00,WUHU216HW,2013-05-14 22:46:00,
2013-05-14 15:51:00,65.9,40.1,30.12,WSW,248,2.0,2.0,39,0.00,,,0.00,WUHU216HW,2013-05-14 22:51:00,
2013-05-14 15:56:00,65.9,40.9,30.12,West,270,1.3,2.0,40,0.00,,,0.00,WUHU216HW,2013-05-14 22:56:00,
2013-05-14 16:01:00,65.9,40.1,30.12,WSW,245,1.7,2.7,39,0.00,,,0.00,WUHU216HW,2013-05-14 23:01:00,
2013-05-14 16:06:00,66.1,40.3,30.12,North,0,0.9,2.7,39,0.00,,,0.00,WUHU216HW,2013-05-14 23:06:00,
2013-05-14 16:11:00,66.1,38.9,30.12,East,90,0.4,0.9,37,0.00,,,0.00,WUHU216HW,2013-05-14 23:11:00,
2013-05-14 16:16:00,66.2,39.8,30.12,East,87,1.6,2.0,38,0.00,,,0.00,WUHU216HW,2013-05-14 23:16:00,
2013-05-14 16:21:00,66.4,40.7,30.12,WNW,293,0.9,2.0,39,0.00,,,0.00,WUHU216HW,2013-05-14 23:21:00,
2013-05-14 16:26:00,66.8,41.0,30.12,SSE,158,0.0,1.1,39,0.00,,,0.00,WUHU216HW,2013-05-14 23:26:00,
2013-05-14 16:31:00,67.0,41.9,30.11,WSW,248,0.0,1.1,40,0.00,,,0.00,WUHU216HW,2013-05-14 23:31:00,
2013-05-14 16:36:00,67.0,40.4,30.11,SE,135,0.2,0.2,38,0.00,,,0.00,WUHU216HW,2013-05-14 23:36:00,
2013-05-14 16:41:00,66.6,38.6,30.11,ESE,113,1.1,1.1,36,0.00,,,0.00,WUHU216HW,2013-05-14 23:41:00,
2013-05-14 16:46:00,66.4,40.7,30.11,SW,225,1.1,1.1,39,0.00,,,0.00,WUHU216HW,2013-05-14 23:46:00,
2013-05-14 16:51:00,66.6,40.9,30.11,West,270,1.1,1.1,39,0.00,,,0.00,WUHU216HW,2013-05-14 23:51:00,
2013-05-14 16:56:00,66.6,40.9,30.11,West,270,0.4,1.1,39,0.00,,,0.00,WUHU216HW,2013-05-14 23:56:00,
2013-05-14 17:01:00,66.4,40.0,30.11,ESE,113,1.8,1.8,38,0.00,,,0.00,WUHU216HW,2013-05-15 00:01:00,
2013-05-14 17:06:00,66.4,41.4,30.11,ESE,113,0.2,1.8,40,0.00,,,0.00,WUHU216HW,2013-05-15 00:06:00,
2013-05-14 17:11:00,66.4,41.4,30.11,ESE,113,1.1,1.8,40,0.00,,,0.00,WUHU216HW,2013-05-15 00:11:00,
2013-05-14 17:16:00,66.6,42.1,30.11,ESE,113,0.0,1.1,41,0.00,,,0.00,WUHU216HW,2013-05-15 00:16:00,
2013-05-14 17:21:00,66.4,41.9,30.11,WSW,248,0.0,1.1,41,0.00,,,0.00,WUHU216HW,2013-05-15 00:21:00,
2013-05-14 17:26:00,66.4,41.9,30.11,WSW,248,0.2,0.2,41,0.00,,,0.00,WUHU216HW,2013-05-15 00:26:00,
2013-05-14 17:31:00,66.4,41.4,30.11,NNW,338,0.2,0.2,40,0.00,,,0.00,WUHU216HW,2013-05-15 00:31:00,
2013-05-14 17:36:00,66.2,39.1,30.11,WNW,293,0.4,0.4,37,0.00,,,0.00,WUHU216HW,2013-05-15 00:36:00,
2013-05-14 17:41:00,66.2,40.5,30.11,WNW,293,0.0,0.4,39,0.00,,,0.00,WUHU216HW,2013-05-15 00:41:00,
2013-05-14 17:46:00,66.1,38.2,30.11,NW,315,0.4,0.4,36,0.00,,,0.00,WUHU216HW,2013-05-15 00:46:00,
2013-05-14 17:51:00,65.9,40.1,30.11,SSW,203,0.2,0.4,39,0.00,,,0.00,WUHU216HW,2013-05-15 00:51:00,
2013-05-14 17:56:00,65.9,40.1,30.10,SSW,203,0.2,0.4,39,0.00,,,0.00,WUHU216HW,2013-05-15 00:56:00,
2013-05-14 18:01:00,65.9,40.1,30.10,SW,225,0.0,0.2,39,0.00,,,0.00,WUHU216HW,2013-05-15 01:01:00,
2013-05-14 18:06:00,65.9,39.4,30.10,NW,315,0.2,0.2,38,0.00,,,0.00,WUHU216HW,2013-05-15 01:06:00,
2013-05-14 18:11:00,65.9,39.4,30.10,NW,315,0.2,0.2,38,0.00,,,0.00,WUHU216HW,2013-05-15 01:11:00,
2013-05-14 18:16:00,65.7,40.1,30.10,ESE,113,0.0,0.2,39,0.00,,,0.00,WUHU216HW,2013-05-15 01:16:00,
2013-05-14 18:21:00,65.7,40.1,30.10,North,0,0.7,0.7,39,0.00,,,0.00,WUHU216HW,2013-05-15 01:21:00,
2013-05-14 18:26:00,65.5,39.9,30.09,West,270,0.4,0.7,39,0.00,,,0.00,WUHU216HW,2013-05-15 01:26:00,
2013-05-14 18:31:00,65.5,39.9,30.09,West,270,1.1,1.1,39,0.00,,,0.00,WUHU216HW,2013-05-15 01:31:00,
2013-05-14 18:36:00,65.5,39.9,30.09,WNW,293,0.0,1.1,39,0.00,,,0.00,WUHU216HW,2013-05-15 01:36:00,
2013-05-14 18:41:00,65.3,39.7,30.09,ENE,68,0.0,1.1,39,0.00,,,0.00,WUHU216HW,2013-05-15 01:41:00,
2013-05-14 18:46:00,65.2,39.5,30.09,WNW,293,0.0,0.0,39,0.00,,,0.00,WUHU216HW,2013-05-15 01:46:00,
2013-05-14 18:51:00,65.2,40.2,30.09,WNW,293,0.0,0.0,40,0.00,,,0.00,WUHU216HW,2013-05-15 01:51:00,
2013-05-14 18:56:00,65.2,40.9,30.09,NW,315,0.0,0.0,41,0.00,,,0.00,WUHU216HW,2013-05-15 01:56:00,
2013-05-14 19:01:00,65.2,40.9,30.09,East,90,0.0,0.0,41,0.00,,,0.00,WUHU216HW,2013-05-15 02:01:00,
2013-05-14 19:06:00,64.8,40.0,30.09,WNW,293,1.8,1.8,40,0.00,,,0.00,WUHU216HW,2013-05-15 02:06:00,
2013-05-14 19:11:00,64.8,40.0,30.09,WNW,293,2.5,2.5,40,0.00,,,0.00,WUHU216HW,2013-05-15 02:11:00,
2013-05-14 19:16:00,64.6,40.3,30.09,North,0,0.0,2.5,41,0.00,,,0.00,WUHU216HW,2013-05-15 02:16:00,
2013-05-14 19:21:00,64.4,40.1,30.09,NE,45,0.0,2.5,41,0.00,,,0.00,WUHU216HW,2013-05-15 02:21:00,
2013-05-14 19:26:00,64.4,40.1,30.09,NNW,338,0.0,0.0,41,0.00,,,0.00,WUHU216HW,2013-05-15 02:26:00,
2013-05-14 19:31:00,64.4,40.1,30.09,SSE,158,0.0,0.0,41,0.00,,,0.00,WUHU216HW,2013-05-15 02:31:00,
2013-05-14 19:36:00,64.3,40.6,30.10,NE,45,0.4,0.4,42,0.00,,,0.00,WUHU216HW,2013-05-15 02:36:00,
2013-05-14 19:41:00,64.3,40.6,30.09,WNW,293,0.7,0.7,42,0.00,,,0.00,WUHU216HW,2013-05-15 02:41:00,
2013-05-14 19:46:00,64.1,41.1,30.10,West,270,0.2,0.7,43,0.00,,,0.00,WUHU216HW,2013-05-15 02:46:00,
2013-05-14 19:51:00,63.7,40.7,30.10,WNW,293,0.7,0.7,43,0.00,,,0.00,WUHU216HW,2013-05-15 02:51:00,
2013-05-14 19:56:00,63.5,40.5,30.10,WSW,248,0.2,0.7,43,0.00,,,0.00,WUHU216HW,2013-05-15 02:56:00,
2013-05-14 20:01:00,63.5,41.1,30.10,WSW,248,0.0,0.2,44,0.00,,,0.00,WUHU216HW,2013-05-15 03:01:00,
2013-05-14 20:06:00,63.0,41.2,30.10,WSW,248,0.0,0.2,45,0.00,,,0.00,WUHU216HW,2013-05-15 03:06:00,
2013-05-14 20:11:00,62.8,41.1,30.10,WSW,248,0.0,0.0,45,0.00,,,0.00,WUHU216HW,2013-05-15 03:11:00,
2013-05-14 20:16:00,62.5,41.3,30.10,WSW,248,0.0,0.0,46,0.00,,,0.00,WUHU216HW,2013-05-15 03:16:00,
2013-05-14 20:21:00,61.9,40.8,30.10,NNW,338,0.0,0.0,46,0.00,,,0.00,WUHU216HW,2013-05-15 03:21:00,
2013-05-14 20:26:00,61.7,41.2,30.10,NW,315,0.0,0.0,47,0.00,,,0.00,WUHU216HW,2013-05-15 03:26:00,
2013-05-14 20:31:00,61.4,40.9,30.10,WNW,293,0.0,0.0,47,0.00,,,0.00,WUHU216HW,2013-05-15 03:31:00,
2013-05-14 20:36:00,61.0,41.1,30.09,WNW,293,0.0,0.0,48,0.00,,,0.00,WUHU216HW,2013-05-15 03:36:00,
2013-05-14 20:41:00,60.8,41.6,30.10,WNW,293,0.0,0.0,49,0.00,,,0.00,WUHU216HW,2013-05-15 03:41:00,
2013-05-14 20:46:00,60.7,41.4,30.10,WNW,293,0.0,0.0,49,0.00,,,0.00,WUHU216HW,2013-05-15 03:46:00,
2013-05-14 20:51:00,59.9,41.8,30.10,WNW,293,0.0,0.0,51,0.00,,,0.00,WUHU216HW,2013-05-15 03:51:00,
2013-05-14 20:56:00,59.4,41.3,30.10,WNW,293,0.0,0.0,51,0.00,,,0.00,WUHU216HW,2013-05-15 03:56:00,
2013-05-14 21:01:00,59.2,41.6,30.10,WNW,293,0.0,0.0,52,0.00,,,0.00,WUHU216HW,2013-05-15 04:01:00,
2013-05-14 21:06:00,58.9,41.8,30.11,WNW,293,0.0,0.0,53,0.00,,,0.00,WUHU216HW,2013-05-15 04:06:00,
2013-05-14 21:11:00,58.7,41.6,30.11,WNW,293,0.0,0.0,53,0.00,,,0.00,WUHU216HW,2013-05-15 04:11:00,
2013-05-14 21:16:00,58.3,41.8,30.11,WNW,293,0.0,0.0,54,0.00,,,0.00,WUHU216HW,2013-05-15 04:16:00,
2013-05-14 21:21:00,58.0,41.9,30.11,WNW,293,0.0,0.0,55,0.00,,,0.00,WUHU216HW,2013-05-15 04:21:00,
2013-05-14 21:26:00,57.8,42.2,30.11,WNW,293,0.0,0.0,56,0.00,,,0.00,WUHU216HW,2013-05-15 04:26:00,
2013-05-14 21:31:00,57.6,41.6,30.11,WNW,293,0.0,0.0,55,0.00,,,0.00,WUHU216HW,2013-05-15 04:31:00,
2013-05-14 21:36:00,57.2,41.7,30.11,WNW,293,0.0,0.0,56,0.00,,,0.00,WUHU216HW,2013-05-15 04:36:00,
2013-05-14 21:41:00,57.2,41.7,30.11,WNW,293,0.0,0.0,56,0.00,,,0.00,WUHU216HW,2013-05-15 04:41:00,
2013-05-14 21:46:00,56.9,41.8,30.11,WNW,293,0.0,0.0,57,0.00,,,0.00,WUHU216HW,2013-05-15 04:46:00,
2013-05-14 21:51:00,56.9,41.8,30.11,WNW,293,0.0,0.0,57,0.00,,,0.00,WUHU216HW,2013-05-15 04:51:00,
2013-05-14 21:56:00,56.5,42.0,30.11,WNW,293,0.0,0.0,58,0.00,,,0.00,WUHU216HW,2013-05-15 04:56:00,
2013-05-14 22:01:00,56.3,41.8,30.11,WNW,293,0.0,0.0,58,0.00,,,0.00,WUHU216HW,2013-05-15 05:01:00,
2013-05-14 22:06:00,56.2,41.6,30.11,WNW,293,0.0,0.0,58,0.00,,,0.00,WUHU216HW,2013-05-15 05:06:00,
2013-05-14 22:11:00,56.0,41.9,30.11,WNW,293,0.0,0.0,59,0.00,,,0.00,WUHU216HW,2013-05-15 05:11:00,
2013-05-14 22:16:00,55.8,41.7,30.11,WNW,293,0.0,0.0,59,0.00,,,0.00,WUHU216HW,2013-05-15 05:16:00,
2013-05-14 22:21:00,55.6,41.9,30.11,WNW,293,0.0,0.0,60,0.00,,,0.00,WUHU216HW,2013-05-15 05:21:00,
2013-05-14 22:26:00,55.4,41.8,30.11,WNW,293,0.0,0.0,60,0.00,,,0.00,WUHU216HW,2013-05-15 05:26:00,
2013-05-14 22:31:00,55.1,41.4,30.11,WNW,293,0.0,0.0,60,0.00,,,0.00,WUHU216HW,2013-05-15 05:31:00,
2013-05-14 22:36:00,54.9,41.7,30.11,WNW,293,0.0,0.0,61,0.00,,,0.00,WUHU216HW,2013-05-15 05:36:00,
2013-05-14 22:41:00,54.7,41.5,30.11,WNW,293,0.0,0.0,61,0.00,,,0.00,WUHU216HW,2013-05-15 05:41:00,
2013-05-14 22:46:00,54.5,41.8,30.11,WNW,293,0.0,0.0,62,0.00,,,0.00,WUHU216HW,2013-05-15 05:46:00,
2013-05-14 22:51:00,54.4,41.6,30.11,WNW,293,0.0,0.0,62,0.00,,,0.00,WUHU216HW,2013-05-15 05:51:00,
2013-05-14 22:56:00,54.2,41.9,30.11,WNW,293,0.0,0.0,63,0.00,,,0.00,WUHU216HW,2013-05-15 05:56:00,
2013-05-14 23:01:00,54.0,41.7,30.11,WNW,293,0.0,0.0,63,0.00,,,0.00,WUHU216HW,2013-05-15 06:01:00,
2013-05-14 23:06:00,53.6,41.8,30.11,WNW,293,0.0,0.0,64,0.00,,,0.00,WUHU216HW,2013-05-15 06:06:00,
2013-05-14 23:11:00,53.6,41.8,30.11,WNW,293,0.0,0.0,64,0.00,,,0.00,WUHU216HW,2013-05-15 06:11:00,
2013-05-14 23:16:00,53.5,41.6,30.11,WNW,293,0.0,0.0,64,0.00,,,0.00,WUHU216HW,2013-05-15 06:16:00,
2013-05-14 23:21:00,53.5,41.6,30.11,WNW,293,0.0,0.0,64,0.00,,,0.00,WUHU216HW,2013-05-15 06:21:00,
2013-05-14 23:26:00,53.3,41.4,30.11,WNW,293,0.0,0.0,64,0.00,,,0.00,WUHU216HW,2013-05-15 06:26:00,
2013-05-14 23:31:00,52.9,41.4,30.11,WNW,293,0.0,0.0,65,0.00,,,0.00,WUHU216HW,2013-05-15 06:31:00,
2013-05-14 23:36:00,52.9,41.4,30.11,WNW,293,0.0,0.0,65,0.00,,,0.00,WUHU216HW,2013-05-15 06:36:00,
2013-05-14 23:41:00,52.9,41.9,30.11,WNW,293,0.0,0.0,66,0.00,,,0.00,WUHU216HW,2013-05-15 06:41:00,
2013-05-14 23:46:00,52.6,41.5,30.10,WNW,293,0.0,0.0,66,0.00,,,0.00,WUHU216HW,2013-05-15 06:46:00,
2013-05-14 23:51:00,52.6,41.5,30.10,WNW,293,0.0,0.0,66,0.00,,,0.00,WUHU216HW,2013-05-15 06:51:00,
2013-05-14 23:56:00,52.4,41.8,30.10,WNW,293,0.0,0.0,67,0.00,,,0.00,WUHU216HW,2013-05-15 06:56:00,